GFSSE_sfc_dewp_000.txt.gz
Dewpoint
70 73 76 76 75 76 76 75 75 75 75 75 74 73 75 75 74 74 74 74 73 73 74 74 73 73 72 72 73 73 74 73 74 73 74 74 75 74 74 74 73 72 73
70 72 77 76 75 74 74 73 74 74 75 74 74 73 74 75 74 74 73 74 74 74 74 74 73 73 72 72 73 73 73 73 74 73 74 75 74 74 73 74 73 72 73
68 71 73 76 76 74 74 74 74 74 74 74 75 74 74 74 74 74 74 74 73 73 73 73 73 73 72 72 73 74 74 73 72 72 73 72 73 73 73 73 73 72 72
61 71 74 76 76 76 75 75 74 75 75 75 75 74 74 74 74 74 73 73 72 72 73 72 73 73 72 72 72 74 74 73 72 72 71 70 69 73 73 73 73 72 72
61 70 75 77 76 76 75 75 75 75 75 75 75 73 73 73 73 73 73 73 73 73 73 74 74 73 73 72 71 72 73 73 72 71 70 70 70 71 73 73 72 71 71
60 69 75 77 76 76 75 74 75 75 74 74 74 73 73 73 73 72 72 73 73 73 73 74 74 73 74 73 71 71 73 72 71 71 71 70 71 72 72 71 70 69 68
56 68 73 75 75 75 74 74 73 72 72 72 72 73 74 72 71 71 72 71 72 73 73 73 72 73 72 73 72 71 73 72 69 69 67 67 71 72 70 69 68 67 66
55 67 71 74 74 73 72 71 71 70 71 70 70 71 72 72 72 72 70 70 70 71 71 72 72 71 71 72 72 71 71 71 69 66 68 69 71 71 69 68 66 65 64
49 53 68 68 71 72 71 71 70 69 68 69 67 67 69 73 70 68 71 69 69 70 70 71 71 71 71 70 72 71 71 71 70 70 68 69 72 71 69 67 66 64 63
45 47 50 55 54 58 62 67 66 69 67 64 66 64 66 63 65 64 68 67 70 70 69 71 70 69 71 71 72 72 71 69 69 67 67 70 70 68 69 67 64 63 63
41 43 44 45 45 44 43 51 56 59 61 59 57 59 54 50 53 54 62 66 67 69 67 70 69 69 71 71 72 72 71 67 68 68 70 70 70 69 68 67 65 63 61
37 37 38 39 40 41 36 37 38 39 41 41 42 43 45 47 51 53 57 62 63 64 64 65 69 70 69 69 70 72 69 69 69 69 69 70 70 69 68 68 67 64 61
36 36 34 33 35 37 38 39 39 39 40 42 41 40 44 44 45 44 47 49 53 57 53 55 55 59 62 67 69 69 69 69 69 70 68 71 70 68 67 69 68 65 63
35 33 30 30 31 35 42 41 40 38 38 39 39 39 43 43 41 40 41 44 46 48 46 48 50 50 52 65 67 68 68 68 68 68 69 70 70 68 66 67 69 66 64
33 31 29 27 28 31 36 39 40 39 37 39 41 40 42 42 41 42 41 42 42 43 42 42 41 42 45 49 61 67 67 67 68 67 68 70 69 69 67 67 69 66 65
30 27 27 26 26 30 34 37 39 39 39 41 41 39 40 41 41 42 42 41 41 42 41 42 42 42 43 46 50 62 66 66 66 68 67 67 69 69 67 67 69 67 65
28 26 27 27 27 29 32 37 38 37 37 37 37 37 38 42 41 40 42 41 41 41 42 43 43 44 45 46 48 51 62 65 66 66 67 66 66 68 68 68 69 68 66
27 25 28 28 27 28 30 33 32 34 35 36 35 38 37 40 40 40 42 42 41 42 44 44 44 45 45 45 45 48 52 64 65 66 66 67 65 64 67 68 69 69 67
26 24 27 28 26 27 28 29 31 32 34 34 34 36 34 40 40 40 42 42 41 42 42 43 42 43 42 43 42 41 42 50 64 64 64 65 66 65 63 66 68 68 69
26 25 25 28 26 26 30 30 33 33 33 34 34 35 33 38 38 40 42 41 41 41 41 41 40 42 43 44 43 44 44 46 50 60 63 64 65 65 63 62 64 65 69
25 24 25 27 26 28 31 31 31 32 31 34 34 33 33 36 37 38 41 40 40 40 39 40 41 40 42 44 43 44 46 46 46 51 61 64 64 64 63 63 62 62 65
24 23 24 25 28 29 32 32 31 29 32 33 37 34 35 34 35 35 34 37 37 39 38 39 39 40 41 42 41 42 41 43 45 46 54 61 63 64 63 62 62 59 59
24 25 25 25 27 30 29 32 33 33 35 35 34 35 35 32 34 33 33 34 34 36 37 37 38 38 38 39 41 44 41 39 43 44 48 49 58 62 62 61 61 59 59
26 27 27 27 25 28 30 31 31 32 32 32 33 34 33 32 31 32 32 33 34 35 34 35 34 36 37 38 38 42 45 45 42 42 45 48 51 58 60 62 60 60 60
26 28 27 27 26 28 27 31 33 33 33 34 32 31 30 31 32 32 32 32 33 35 34 35 36 36 36 36 40 43 43 43 44 44 43 45 48 54 59 59 61 58 61
28 32 32 29 28 29 30 30 31 31 31 31 31 31 32 33 34 33 32 32 33 34 35 36 35 35 36 38 39 42 43 42 42 44 44 45 46 47 52 60 61 60 59

GFSSE_sfc_dewp_003.txt.gz
Dewpoint
71 75 77 76 75 75 75 75 75 75 75 75 74 74 75 75 74 74 74 74 74 74 74 73 73 73 73 73 73 73 74 75 74 74 74 75 75 74 74 74 74 72 73
72 74 77 76 75 75 74 75 74 74 75 75 75 75 75 74 75 74 74 74 73 73 73 73 72 72 73 73 73 74 74 74 74 73 74 74 74 75 73 74 74 73 73
72 73 75 77 76 74 74 74 74 74 75 75 75 75 74 74 74 74 74 73 73 73 73 73 72 72 72 72 73 74 74 73 73 73 73 72 72 74 73 74 74 73 72
72 75 75 76 77 76 74 75 75 75 74 75 75 74 74 73 73 73 73 73 73 73 73 72 72 72 72 72 73 74 74 72 72 73 71 72 70 73 73 74 73 72 72
73 74 75 77 76 76 75 75 76 75 74 74 74 74 73 73 72 73 72 73 74 74 74 73 74 72 72 72 72 73 74 72 73 71 71 70 71 72 74 73 72 72 71
72 75 75 76 76 75 76 74 73 73 73 73 74 73 73 71 70 72 69 72 73 74 74 74 74 73 73 72 72 72 72 72 73 71 70 72 71 72 72 73 71 70 70
71 74 74 75 75 75 74 72 71 71 72 72 72 72 71 71 70 70 69 70 70 70 71 72 73 72 72 73 71 72 73 71 69 68 69 69 71 73 72 72 70 69 68
70 72 73 75 74 73 71 70 70 70 70 70 67 68 72 72 70 70 71 70 69 70 70 70 70 71 72 72 73 72 73 70 68 69 70 71 73 73 72 71 69 67 66
59 71 71 69 70 72 71 70 69 68 66 65 65 64 64 63 63 66 68 70 71 71 70 69 67 69 71 72 72 72 71 70 67 68 68 70 72 72 72 70 68 67 65
46 53 67 69 66 63 60 67 65 65 63 59 58 60 60 59 59 59 61 65 67 68 68 70 68 69 71 71 72 72 71 70 68 68 66 70 70 70 71 70 68 67 65
42 43 43 44 43 45 48 49 51 56 56 56 53 56 52 49 51 49 57 60 60 64 63 65 66 69 70 70 71 72 71 67 65 66 67 69 71 71 71 70 68 66 65
37 38 36 37 38 38 39 40 40 39 43 42 41 43 45 44 47 47 51 54 56 57 57 57 57 58 64 66 68 70 70 67 66 68 68 70 70 71 70 70 68 66 64
36 33 34 34 37 39 41 40 39 39 39 40 39 42 42 43 44 43 44 46 48 52 48 47 46 46 49 57 66 66 68 69 68 68 68 70 71 70 71 70 69 67 64
33 30 31 32 34 37 41 41 38 38 37 38 38 40 40 42 42 42 43 44 45 47 45 45 46 44 45 47 53 64 66 67 68 69 70 71 71 71 70 69 70 68 65
31 28 27 30 32 35 36 38 38 36 36 38 38 39 39 41 41 42 42 43 43 44 44 44 44 45 45 46 48 55 59 66 68 69 70 70 71 71 70 69 69 70 67
28 27 26 27 30 33 34 35 37 34 36 36 37 37 39 41 40 42 42 42 43 42 43 44 44 44 45 46 47 49 54 60 66 67 68 68 70 71 70 68 69 70 68
26 26 26 27 30 32 33 35 36 33 35 32 34 35 37 40 39 40 43 42 42 42 43 44 44 44 44 43 43 42 43 53 59 64 67 68 68 69 69 69 69 70 68
25 23 25 28 29 30 30 32 30 32 33 32 33 35 34 40 39 39 42 42 42 42 43 43 42 43 43 43 43 43 42 43 47 53 63 66 67 67 68 68 68 69 69
25 25 27 27 27 29 28 30 31 32 32 32 32 33 32 38 39 39 41 41 41 41 41 41 41 42 42 43 41 42 43 45 48 51 56 62 65 66 67 67 68 68 69
25 24 26 27 25 27 29 30 31 31 31 32 32 33 31 35 36 37 40 40 40 40 40 40 39 41 41 42 42 40 44 44 40 45 51 52 57 63 66 65 66 65 68
25 24 24 26 24 29 29 29 29 30 30 32 33 32 31 34 35 35 38 39 39 39 38 39 40 39 40 42 42 40 39 38 41 38 49 48 50 58 63 65 64 65 65
25 24 23 25 26 29 31 31 30 29 31 32 35 33 33 33 33 34 34 36 36 37 36 36 38 38 40 39 40 37 36 35 39 41 40 42 47 52 53 62 64 63 62
24 24 23 25 27 30 29 32 32 32 32 33 32 32 35 33 32 33 32 33 33 35 35 35 36 36 37 38 38 41 36 33 38 39 39 38 43 49 53 54 62 64 62
23 24 24 26 26 29 30 31 30 31 31 32 31 33 32 31 30 32 31 31 33 34 34 35 36 36 37 37 38 37 42 43 38 35 36 38 42 45 48 52 53 62 63
23 23 25 26 26 28 29 31 32 31 33 33 32 29 29 30 31 31 32 31 32 34 35 35 36 36 37 36 37 39 42 42 42 40 38 37 39 43 47 48 50 50 61
24 26 27 26 26 27 29 30 31 31 31 31 30 30 32 32 33 32 32 33 33 33 33 36 36 35 36 38 39 41 41 39 39 41 40 39 38 42 47 48 49 51 53

GFSSE_sfc_dewp_006.txt.gz
Dewpoint
70 74 77 75 75 75 75 74 74 75 74 74 74 74 74 74 74 74 74 74 73 73 73 72 72 73 73 73 72 74 74 74 73 74 75 75 75 74 74 74 74 72 73
71 74 76 75 75 74 74 74 74 75 74 74 74 74 74 74 74 74 73 73 73 73 73 72 72 71 72 72 73 74 73 73 73 74 74 75 74 75 74 74 74 72 73
72 75 75 76 75 74 74 74 74 74 74 74 74 74 73 73 73 73 73 73 73 72 72 72 72 71 71 72 73 74 73 72 72 73 73 72 73 74 74 74 73 72 71
73 75 74 75 75 75 74 74 74 74 74 74 73 73 72 72 72 72 73 73 73 73 73 72 72 72 71 72 72 73 73 73 72 73 72 72 71 74 74 74 72 72 71
74 74 74 75 75 75 74 74 73 73 73 73 73 72 70 69 68 68 70 72 72 73 74 73 73 71 71 72 71 71 73 72 72 71 71 70 71 72 73 73 72 71 71
73 74 75 75 75 75 73 71 71 71 70 70 70 70 69 68 68 66 66 67 67 69 71 72 73 73 72 71 72 71 71 72 72 69 70 70 71 73 73 72 72 72 71
72 73 73 74 74 73 71 69 68 69 67 67 68 70 70 66 68 68 67 67 67 67 67 67 70 72 72 72 71 71 71 71 68 68 69 70 71 73 73 73 72 70 70
73 73 73 74 72 71 68 67 68 64 62 62 63 63 64 64 64 64 66 68 67 68 68 66 67 69 71 72 72 71 72 70 68 68 69 70 71 73 73 72 71 70 69
72 72 69 69 70 70 69 68 64 60 60 59 61 61 60 60 60 61 61 63 63 63 64 67 67 68 67 71 71 71 72 70 67 68 68 69 72 72 73 72 70 68 67
64 68 67 65 62 61 55 62 59 59 57 57 58 57 55 55 55 57 59 60 61 60 61 61 64 68 67 67 70 72 71 71 68 67 67 68 71 71 71 72 70 68 67
45 49 47 42 43 43 41 48 52 55 54 54 52 53 48 46 48 48 55 57 58 57 57 58 58 57 57 59 68 70 71 70 67 66 65 66 68 71 70 71 70 68 66
38 37 38 37 38 39 38 38 38 41 40 40 41 41 42 43 46 47 50 54 55 55 54 54 55 54 51 52 60 63 68 68 67 66 66 68 69 70 70 70 70 68 67
35 35 34 36 38 41 39 37 37 37 39 39 39 39 41 42 43 43 44 45 46 50 45 45 45 45 45 49 51 55 61 66 67 67 68 69 69 71 71 70 70 68 67
32 32 33 35 37 38 41 38 37 37 37 38 38 38 40 41 41 42 42 43 44 44 43 44 44 44 44 46 48 50 53 58 63 68 68 70 71 71 71 70 70 69 67
31 29 31 33 35 36 37 37 35 36 35 37 37 38 40 41 39 41 42 43 42 42 43 43 44 43 43 43 43 47 48 50 56 61 65 69 70 70 70 71 71 70 69
30 27 28 31 33 35 35 36 33 35 34 35 37 37 39 40 39 41 42 42 42 41 43 43 41 42 42 42 41 41 44 45 48 52 57 61 65 68 68 69 70 70 70
30 27 26 30 33 33 33 36 34 34 34 32 35 34 38 40 38 39 41 41 41 40 41 41 41 41 42 42 41 41 43 44 46 49 52 56 62 65 68 68 68 70 69
27 26 26 30 32 31 32 33 32 33 33 32 34 33 35 40 38 38 41 40 41 41 42 40 41 41 40 41 40 41 40 44 43 39 43 48 52 54 60 66 68 69 68
25 25 26 28 31 30 30 30 32 31 32 32 33 32 32 37 38 37 39 39 40 40 40 40 39 41 38 40 39 38 41 42 38 38 43 46 48 49 54 60 64 67 68
24 25 27 27 28 28 29 30 32 31 32 32 32 33 30 35 35 35 36 37 39 39 38 39 37 39 39 39 39 41 42 41 38 35 39 41 42 43 48 50 53 63 67
25 25 27 27 26 29 30 29 29 29 30 32 32 32 30 33 34 32 35 37 37 37 36 38 38 38 37 39 39 34 38 37 34 37 37 39 38 39 46 52 52 55 63
25 24 25 26 27 28 30 30 30 29 30 31 34 34 32 32 33 32 34 34 36 35 34 34 36 36 39 38 36 36 31 30 35 34 40 37 35 42 42 44 50 52 53
25 24 23 25 27 30 30 32 32 32 32 32 33 32 32 33 33 32 31 33 32 34 34 34 35 34 34 37 37 37 33 31 32 35 35 34 36 38 41 46 51 51 50
26 25 24 26 27 29 31 31 30 31 29 31 31 32 32 31 30 31 31 30 31 33 33 34 35 35 36 35 36 39 40 39 35 33 32 34 37 37 38 40 44 50 50
25 25 25 25 28 29 30 32 31 31 32 32 32 30 29 30 31 31 30 30 31 33 34 33 34 34 35 35 35 37 38 40 39 38 35 35 37 38 39 39 42 49 51
24 25 26 26 27 29 30 31 31 30 31 32 31 31 31 32 33 31 31 31 32 33 32 34 33 33 33 35 37 38 39 37 34 38 38 37 37 37 38 38 43 48 50

GFSSE_sfc_dewp_009.txt.gz
Dewpoint
70 73 75 74 74 74 74 74 74 73 73 74 74 74 74 74 74 73 73 73 73 73 72 72 72 72 73 72 73 73 73 73 72 73 74 75 75 74 74 74 74 72 73
72 74 75 75 74 74 74 74 74 74 74 74 74 72 73 73 73 73 73 73 73 72 72 72 72 71 73 72 73 73 73 72 73 74 74 75 74 74 74 74 74 72 73
73 75 74 75 74 74 74 74 74 74 74 73 73 72 72 72 72 73 73 73 73 73 72 72 72 71 72 72 73 73 72 72 72 73 73 73 73 74 73 73 73 72 72
73 74 74 74 75 74 74 73 73 73 72 72 71 70 70 67 68 70 71 71 72 73 73 73 72 72 71 72 72 73 72 72 72 73 71 72 72 74 74 73 72 72 71
73 74 73 74 75 74 74 73 72 71 71 70 70 69 68 66 65 66 67 67 69 71 72 73 73 72 71 71 72 71 72 72 72 71 70 70 70 73 73 73 72 71 72
73 74 75 74 74 73 71 71 71 69 67 68 69 68 67 68 67 66 65 65 66 67 67 71 72 73 72 71 71 71 71 71 72 68 69 70 71 72 73 72 72 71 71
72 73 73 73 72 70 69 68 66 64 64 66 69 66 65 67 66 66 66 66 65 66 65 67 68 71 72 72 71 71 72 71 68 68 69 69 71 73 72 72 72 71 70
72 73 73 73 71 69 66 64 63 62 63 64 64 63 63 63 63 64 64 64 64 64 65 66 67 66 68 71 72 72 72 70 67 67 68 69 71 72 72 72 72 71 70
72 72 71 69 68 69 68 61 61 60 61 61 60 59 59 59 60 61 62 62 62 63 62 64 67 65 62 68 70 72 72 71 66 67 67 68 70 71 71 71 71 70 69
69 68 65 63 61 53 56 61 60 58 58 58 57 56 55 55 55 58 59 59 59 59 60 60 60 59 58 62 65 69 71 71 68 67 66 66 68 70 70 69 71 70 68
63 62 58 54 51 43 46 54 55 56 55 53 51 52 48 46 48 50 55 56 56 56 56 56 56 56 55 57 59 62 66 68 69 66 66 66 68 69 69 70 69 69 68
51 45 42 41 38 38 37 38 40 41 40 40 39 40 42 42 47 47 51 52 53 53 53 53 53 52 50 49 52 55 57 61 66 67 66 69 70 70 69 69 69 70 69
43 38 37 37 39 38 37 37 37 38 39 39 37 40 41 41 42 43 44 44 44 49 44 45 44 44 44 46 47 50 52 55 59 61 65 68 70 70 70 70 70 70 70
35 35 36 37 39 40 41 37 37 36 37 37 37 39 40 40 40 41 42 42 42 43 42 43 43 42 42 43 43 43 46 48 50 53 57 59 63 67 69 69 69 69 70
34 33 34 36 37 37 36 36 37 38 36 37 37 39 40 39 40 41 41 42 41 41 42 41 41 41 41 42 41 42 43 45 48 51 54 56 57 62 65 68 68 69 70
33 31 33 35 35 36 36 34 34 35 35 37 37 39 40 39 39 41 41 40 40 40 41 40 40 41 39 41 39 41 42 43 46 46 47 50 54 56 59 62 65 67 68
32 29 30 33 35 34 34 33 34 35 34 36 35 36 40 39 38 40 40 39 40 40 40 39 38 40 38 39 39 39 40 43 42 38 41 45 50 48 50 52 57 62 66
32 27 28 32 33 33 34 35 32 34 32 35 34 34 39 39 37 38 39 38 40 40 40 39 39 39 37 38 38 36 39 41 38 37 42 46 41 43 43 48 52 56 58
32 26 27 32 32 33 32 32 32 32 32 33 33 32 35 38 37 36 38 37 39 39 39 39 37 39 37 37 38 35 37 39 38 33 36 42 41 42 40 46 49 51 54
30 27 26 30 31 30 31 31 32 32 32 32 32 32 31 35 36 34 35 36 38 38 36 38 35 37 37 37 38 37 37 38 36 35 34 34 39 36 42 46 41 44 53
27 25 26 28 29 29 30 30 30 30 30 32 33 33 31 33 34 32 34 35 37 36 35 36 36 36 35 38 38 34 36 36 33 34 33 38 37 34 41 42 42 44 49
27 25 26 27 28 29 31 30 29 29 30 31 34 33 33 32 33 31 32 33 35 35 33 33 34 35 37 37 35 35 29 31 33 31 38 38 35 36 38 39 44 41 45
27 25 25 26 27 29 30 32 31 32 32 33 33 33 32 32 33 32 31 32 32 33 34 33 34 34 33 35 36 35 31 29 31 32 31 34 33 36 38 41 41 42 42
28 26 25 27 26 29 31 31 30 31 29 31 32 32 32 31 30 30 31 31 31 33 33 33 35 34 35 34 35 37 38 36 34 32 31 32 35 37 37 39 39 40 42
30 25 25 27 27 28 30 31 31 30 30 31 31 30 30 30 30 31 30 30 30 32 32 32 32 33 35 33 34 35 36 37 37 37 32 30 34 37 36 36 37 39 41
30 27 26 26 27 29 30 31 30 30 31 31 31 31 31 31 32 31 30 30 31 32 32 32 33 32 31 33 35 37 37 35 33 35 35 32 34 36 36 37 38 39 43

GFSSE_sfc_dewp_012.txt.gz
Dewpoint
70 72 75 74 74 74 73 74 73 73 74 73 74 74 73 74 74 73 73 73 73 73 72 72 72 73 73 73 73 73 73 73 71 74 74 75 75 74 74 74 74 73 73
71 74 75 74 74 73 73 74 73 74 74 72 72 73 73 73 74 74 73 73 73 73 72 72 72 72 73 72 74 73 73 72 73 74 74 75 74 74 74 74 73 72 73
73 74 74 74 74 74 73 73 74 73 73 72 71 72 71 71 72 72 73 73 73 73 73 72 72 72 72 72 73 73 72 72 73 73 73 73 74 74 74 74 73 73 72
74 74 74 74 74 74 73 73 72 72 71 71 69 68 66 67 68 69 69 70 71 73 73 73 72 72 72 72 72 73 72 72 73 73 71 72 72 72 73 73 72 72 71
73 73 73 74 74 74 73 72 71 70 69 68 68 67 66 66 65 65 66 67 68 68 72 73 73 72 72 72 72 72 72 72 73 71 70 71 71 71 72 72 71 71 71
72 72 74 74 73 73 72 71 69 67 68 69 69 67 67 67 65 66 66 65 66 66 68 69 71 73 73 72 71 72 71 72 70 68 69 70 71 72 72 72 72 71 71
71 72 72 73 72 71 70 67 65 66 69 69 67 66 65 66 65 65 65 65 66 66 66 67 67 69 71 72 73 71 72 72 68 68 69 69 71 71 71 71 71 71 71
71 72 72 72 70 69 67 65 63 65 65 65 64 63 63 63 64 64 64 63 64 64 67 68 65 64 69 71 71 73 72 70 67 67 67 68 70 71 70 70 70 71 70
72 71 70 68 67 69 65 63 62 63 63 62 61 60 60 61 61 62 62 62 62 62 63 63 62 61 64 65 68 71 71 70 67 67 67 67 69 70 71 69 69 70 70
70 69 66 63 56 57 58 62 61 60 60 59 58 56 56 56 59 59 59 59 59 59 59 59 59 58 60 61 63 64 66 69 68 67 67 67 70 70 70 70 69 69 70
67 65 62 56 48 51 54 57 58 58 56 54 53 53 50 47 48 51 56 56 56 56 56 57 56 55 54 55 57 57 58 60 66 67 67 69 70 71 70 69 70 69 69
61 59 56 49 41 40 42 42 42 42 39 39 40 41 41 45 48 48 50 53 53 53 52 52 52 51 48 45 46 52 51 55 58 59 60 64 67 70 70 70 70 69 70
60 53 46 43 38 38 38 38 38 39 38 37 39 39 40 41 42 42 42 42 43 47 42 43 43 43 42 42 43 44 47 50 52 53 57 59 62 66 68 70 69 70 69
52 49 41 40 38 37 41 38 37 37 37 37 38 38 39 40 41 41 41 41 42 42 40 41 41 40 41 41 42 42 44 45 46 48 52 55 59 61 63 65 66 68 69
50 43 38 38 39 38 37 37 37 39 36 37 38 39 39 40 40 41 40 40 40 40 40 39 39 38 39 38 40 41 41 43 44 46 49 52 53 54 56 57 60 62 64
49 40 37 38 38 37 35 36 36 36 37 37 38 39 38 39 40 40 39 39 39 40 39 38 39 37 38 37 37 39 40 41 40 40 43 48 47 48 49 51 55 58 60
38 36 34 36 36 35 34 34 36 35 37 36 36 39 38 38 39 39 39 38 39 39 38 38 37 37 36 37 37 35 37 40 38 37 41 45 43 44 45 48 50 52 55
37 32 33 35 35 34 34 33 34 34 35 35 34 38 38 38 38 38 38 38 39 39 39 39 38 37 35 36 37 35 35 37 37 34 38 43 41 41 41 46 48 49 50
37 31 31 34 34 34 34 32 33 32 33 34 33 34 38 39 37 37 37 37 39 38 37 38 36 38 34 34 37 36 35 36 37 35 33 36 40 40 40 45 46 47 49
37 31 30 32 33 33 33 32 32 32 32 33 33 32 34 38 36 35 35 36 38 37 35 36 33 36 36 36 36 35 35 35 36 35 32 34 39 38 40 45 42 43 47
34 29 28 31 32 32 31 31 31 31 31 32 33 33 31 34 35 32 34 35 37 35 34 36 36 35 34 37 35 34 34 35 35 33 32 36 39 37 38 41 41 44 41
33 30 27 29 31 31 31 31 30 29 30 32 34 33 33 32 34 32 32 33 35 35 33 32 33 34 35 36 34 34 29 31 32 32 31 36 36 36 37 38 40 43 42
33 31 28 28 30 31 31 31 31 32 32 32 33 33 34 32 33 32 32 32 33 33 33 32 33 33 32 34 35 33 29 28 31 32 32 32 34 35 37 40 41 42 42
33 31 30 28 29 30 31 30 29 31 30 32 33 33 33 32 33 32 31 32 31 34 33 32 34 34 35 31 33 36 37 35 32 31 32 32 32 35 37 38 39 39 40
34 31 29 28 28 29 30 31 30 30 30 31 32 31 31 31 30 30 31 30 31 32 32 32 31 33 34 32 33 33 35 36 35 35 31 30 32 34 37 37 37 38 40
35 32 29 28 28 29 30 30 30 29 30 31 31 31 31 31 31 31 31 30 31 32 32 32 31 32 31 32 33 35 36 34 32 34 33 30 31 31 36 37 38 39 39